Satellite: NOAA-12 Catalog number: 21263 Epoch time: 14030.53263155 Element set: 148 Inclination: 098.6778 deg RA of node: 058.8770 deg Eccentricity: 0.0012733 Arg of perigee: 278.1366 deg Mean anomaly: 237.7649 deg Mean motion: 14.25621506 rev/day Decay rate: 6.3e-07 rev/day^2 Epoch rev: 18094 Checksum: 309
Satellite: MET-3/5 Catalog number: 21655 Epoch time: 14030.84807231 Element set: 891 Inclination: 082.5546 deg RA of node: 093.4647 deg Eccentricity: 0.0012035 Arg of perigee: 279.7556 deg Mean anomaly: 080.2207 deg Mean motion: 13.17056823 rev/day Decay rate: -4.18e-06 rev/day^2 Epoch rev: 7990 Checksum: 305
Satellite: MET-2/21 Catalog number: 22782 Epoch time: 14030.83715057 Element set: 964 Inclination: 082.5486 deg RA of node: 282.2861 deg Eccentricity: 0.0021049 Arg of perigee: 290.9674 deg Mean anomaly: 185.3761 deg Mean motion: 13.83724100 rev/day Decay rate: 2.0e-08 rev/day^2 Epoch rev: 3112 Checksum: 285
Satellite: OKEAN-4 Catalog number: 23317 Epoch time: 14030.87014131 Element set: 443 Inclination: 082.5387 deg RA of node: 196.6146 deg Eccentricity: 0.0020972 Arg of perigee: 190.3886 deg Mean anomaly: 314.9504 deg Mean motion: 14.85022061 rev/day Decay rate: 1.867e-05 rev/day^2 Epoch rev: 4272 Checksum: 286
Satellite: NOAA-14 Catalog number: 23455 Epoch time: 14030.43667515 Element set: 626 Inclination: 098.7861 deg RA of node: 116.2805 deg Eccentricity: 0.0010368 Arg of perigee: 075.3015 deg Mean anomaly: 334.1655 deg Mean motion: 14.13944896 rev/day Decay rate: 1.10e-06 rev/day^2 Epoch rev: 98448 Checksum: 305
Satellite: NOAA-15 Catalog number: 25338 Epoch time: 14030.47814022 Element set: 56 Inclination: 098.7446 deg RA of node: 024.6756 deg Eccentricity: 0.0010778 Arg of perigee: 182.3437 deg Mean anomaly: 330.5232 deg Mean motion: 14.25333857 rev/day Decay rate: 2.17e-06 rev/day^2 Epoch rev: 81722 Checksum: 292
Satellite: RESURS Catalog number: 25394 Epoch time: 14030.04638646 Element set: 576 Inclination: 098.3952 deg RA of node: 000.3719 deg Eccentricity: 0.0000616 Arg of perigee: 007.0356 deg Mean anomaly: 034.8235 deg Mean motion: 14.24363291 rev/day Decay rate: 6.5e-07 rev/day^2 Epoch rev: 80865 Checksum: 284
Satellite: FENGYUN1 Catalog number: 25730 Epoch time: 14030.48887451 Element set: 68 Inclination: 098.9027 deg RA of node: 352.5684 deg Eccentricity: 0.0027395 Arg of perigee: 133.0519 deg Mean anomaly: 339.6436 deg Mean motion: 14.11281401 rev/day Decay rate: 1.904e-05 rev/day^2 Epoch rev: 75809 Checksum: 309
Satellite: OKEAN-0 Catalog number: 25860 Epoch time: 14030.88669946 Element set: 161 Inclination: 098.0251 deg RA of node: 355.7437 deg Eccentricity: 0.0002000 Arg of perigee: 114.2432 deg Mean anomaly: 326.8285 deg Mean motion: 14.74934209 rev/day Decay rate: 9.36e-06 rev/day^2 Epoch rev: 78191 Checksum: 302
Satellite: NOAA-16 Catalog number: 26536 Epoch time: 14030.52457138 Element set: 544 Inclination: 099.0097 deg RA of node: 090.1719 deg Eccentricity: 0.0010368 Arg of perigee: 209.6231 deg Mean anomaly: 285.7517 deg Mean motion: 14.12978637 rev/day Decay rate: 2.37e-06 rev/day^2 Epoch rev: 68867 Checksum: 327
Satellite: NOAA-17 Catalog number: 27453 Epoch time: 14030.50504521 Element set: 449 Inclination: 098.3122 deg RA of node: 037.4939 deg Eccentricity: 0.0011256 Arg of perigee: 213.1997 deg Mean anomaly: 309.4290 deg Mean motion: 14.24679772 rev/day Decay rate: 1.52e-06 rev/day^2 Epoch rev: 60308 Checksum: 294
Satellite: NOAA-18 Catalog number: 28654 Epoch time: 14030.50606575 Element set: 935 Inclination: 099.1330 deg RA of node: 007.3639 deg Eccentricity: 0.0013357 Arg of perigee: 291.8263 deg Mean anomaly: 218.7520 deg Mean motion: 14.11934706 rev/day Decay rate: 3.30e-06 rev/day^2 Epoch rev: 44813 Checksum: 293
Satellite: NOAA-19 Catalog number: 33591 Epoch time: 14030.50001032 Element set: 106 Inclination: 098.9312 deg RA of node: 336.0622 deg Eccentricity: 0.0014693 Arg of perigee: 145.1771 deg Mean anomaly: 339.5003 deg Mean motion: 14.11629333 rev/day Decay rate: 2.14e-06 rev/day^2 Epoch rev: 25656 Checksum: 257
/EX SB KEPS @ AMSAT $ORB14030.M Orbital Elements 14030.MISC
HR AMSAT ORBITAL ELEMENTS FOR MANNED AND MISCELLANEOUS SATELLITES FROM WA5QGD FORT WORTH,TX January 30, 2014 BID: ORB14030.M TO ALL RADIO AMATEURS BT
Satellite: HUBBLE Catalog number: 20580 Epoch time: 14030.80418478 Element set: 427 Inclination: 028.4691 deg RA of node: 219.7497 deg Eccentricity: 0.0002847 Arg of perigee: 261.7997 deg Mean anomaly: 221.9149 deg Mean motion: 15.04583082 rev/day Decay rate: 2.794e-05 rev/day^2 Epoch rev: 10400 Checksum: 306
Satellite: ISS Catalog number: 25544 Epoch time: 14030.69267484 Element set: 583 Inclination: 051.6483 deg RA of node: 061.1409 deg Eccentricity: 0.0003795 Arg of perigee: 087.4873 deg Mean anomaly: 016.3400 deg Mean motion: 15.49963915 rev/day Decay rate: 4.3747e-04 rev/day^2 Epoch rev: 86999 Checksum: 338
Satellite: CO-58 Catalog number: 28895 Epoch time: 14029.79838864 Element set: 683 Inclination: 097.8459 deg RA of node: 238.7783 deg Eccentricity: 0.0018780 Arg of perigee: 088.4457 deg Mean anomaly: 271.8896 deg Mean motion: 14.61522066 rev/day Decay rate: 1.036e-05 rev/day^2 Epoch rev: 44003 Checksum: 375
Satellite: FALCON Catalog number: 30776 Epoch time: 14029.85508507 Element set: 790 Inclination: 035.4284 deg RA of node: 248.5490 deg Eccentricity: 0.0000237 Arg of perigee: 338.6290 deg Mean anomaly: 094.1635 deg Mean motion: 15.13428123 rev/day Decay rate: 8.886e-05 rev/day^2 Epoch rev: 37974 Checksum: 320
Satellite: MAST Catalog number: 31126 Epoch time: 14030.88397432 Element set: 961 Inclination: 097.9017 deg RA of node: 019.0681 deg Eccentricity: 0.0093762 Arg of perigee: 063.2211 deg Mean anomaly: 358.1341 deg Mean motion: 14.54924911 rev/day Decay rate: 1.151e-05 rev/day^2 Epoch rev: 36042 Checksum: 277
Satellite: CAPE1 Catalog number: 31130 Epoch time: 14030.18893241 Element set: 965 Inclination: 097.9215 deg RA of node: 014.9122 deg Eccentricity: 0.0101193 Arg of perigee: 082.2226 deg Mean anomaly: 279.0447 deg Mean motion: 14.53957013 rev/day Decay rate: 1.365e-05 rev/day^2 Epoch rev: 35975 Checksum: 285
Satellite: COMPASS Catalog number: 32787 Epoch time: 14030.86252387 Element set: 844 Inclination: 097.7212 deg RA of node: 088.2881 deg Eccentricity: 0.0012973 Arg of perigee: 274.3013 deg Mean anomaly: 085.6721 deg Mean motion: 14.86728600 rev/day Decay rate: 3.778e-05 rev/day^2 Epoch rev: 31177 Checksum: 320
Satellite: AAUSAT2 Catalog number: 32788 Epoch time: 14030.12003218 Element set: 827 Inclination: 097.7227 deg RA of node: 088.3989 deg Eccentricity: 0.0012475 Arg of perigee: 275.9362 deg Mean anomaly: 084.0433 deg Mean motion: 14.87312778 rev/day Decay rate: 3.573e-05 rev/day^2 Epoch rev: 31171 Checksum: 313
Satellite: DO-64 Catalog number: 32789 Epoch time: 14030.83034795 Element set: 865 Inclination: 097.7392 deg RA of node: 094.3882 deg Eccentricity: 0.0011928 Arg of perigee: 261.1904 deg Mean anomaly: 163.3945 deg Mean motion: 14.90963341 rev/day Decay rate: 7.816e-05 rev/day^2 Epoch rev: 31201 Checksum: 329
Satellite: CO-66 Catalog number: 32791 Epoch time: 14030.77226730 Element set: 824 Inclination: 097.7211 deg RA of node: 087.2281 deg Eccentricity: 0.0013437 Arg of perigee: 277.0896 deg Mean anomaly: 082.8791 deg Mean motion: 14.85632128 rev/day Decay rate: 2.375e-05 rev/day^2 Epoch rev: 31164 Checksum: 318
Satellite: RS-30 Catalog number: 32953 Epoch time: 14030.75921713 Element set: 606 Inclination: 082.5026 deg RA of node: 286.6700 deg Eccentricity: 0.0019540 Arg of perigee: 093.2753 deg Mean anomaly: 267.0564 deg Mean motion: 12.43042065 rev/day Decay rate: 1.0e-07 rev/day^2 Epoch rev: 25818 Checksum: 273
Satellite: METEOR-M Catalog number: 35865 Epoch time: 14030.72727316 Element set: 214 Inclination: 098.5710 deg RA of node: 082.1804 deg Eccentricity: 0.0002977 Arg of perigee: 122.7172 deg Mean anomaly: 237.4292 deg Mean motion: 14.21906215 rev/day Decay rate: -.00000000 rev/day^2 Epoch rev: 22680 Checksum: 259
Satellite: RS-38 Catalog number: 35869 Epoch time: 14030.74120012 Element set: 163 Inclination: 098.5635 deg RA of node: 082.0413 deg Eccentricity: 0.0005671 Arg of perigee: 129.7477 deg Mean anomaly: 339.9605 deg Mean motion: 14.22175577 rev/day Decay rate: 3.6e-07 rev/day^2 Epoch rev: 22683 Checksum: 304
Satellite: JUGNU Catalog number: 37839 Epoch time: 14030.34329098 Element set: 552 Inclination: 019.9631 deg RA of node: 010.3306 deg Eccentricity: 0.0018874 Arg of perigee: 265.8949 deg Mean anomaly: 245.7066 deg Mean motion: 14.12238068 rev/day Decay rate: 4.73e-06 rev/day^2 Epoch rev: 11904 Checksum: 304
Satellite: SRMSAT Catalog number: 37841 Epoch time: 14030.28358030 Element set: 551 Inclination: 019.9735 deg RA of node: 027.2526 deg Eccentricity: 0.0011691 Arg of perigee: 209.3065 deg Mean anomaly: 271.2332 deg Mean motion: 14.10292646 rev/day Decay rate: 4.37e-06 rev/day^2 Epoch rev: 11886 Checksum: 274
Satellite: RAX-2 Catalog number: 37853 Epoch time: 14030.86364291 Element set: 710 Inclination: 101.7113 deg RA of node: 355.3765 deg Eccentricity: 0.0226217 Arg of perigee: 093.2616 deg Mean anomaly: 343.8108 deg Mean motion: 14.86438355 rev/day Decay rate: 8.474e-05 rev/day^2 Epoch rev: 12223 Checksum: 294
Satellite: AUBIESAT Catalog number: 37854 Epoch time: 14029.88153221 Element set: 694 Inclination: 101.7149 deg RA of node: 355.3427 deg Eccentricity: 0.0225079 Arg of perigee: 093.9450 deg Mean anomaly: 325.1723 deg Mean motion: 14.87421077 rev/day Decay rate: 8.965e-05 rev/day^2 Epoch rev: 12212 Checksum: 307
